Regional Weather Roundup
Issued by NWS

Home | Current Version | Previous Version | Graphics & Text | Print | Product List | Glossary Off
Versions: 1 2 3 4 5 6 7 8 9 10 11 12 13 14 15 16 17 18 19 20 21 22 23 24 25 26 27 28 29 30 31 32 33 34 35 36 37 38 39 40 41 42 43 44 45 46 47 48 49 50

000
ASUS45 KTFX 241410
RWRMT
MONTANA REGIONAL WEATHER ROUNDUP
NATIONAL WEATHER SERVICE GREAT FALLS MT
800 AM MDT WED AUG 24 2016

NOTE: "FAIR" INDICATES FEW OR NO CLOUDS BELOW 12000 FEET WITH NO
SIGNIFICANT WEATHER AND/OR OBSTRUCTIONS TO VISIBILITY.

MTZ001>007-043-241500-
WEST OF THE DIVIDE

CITY           SKY/WX    TMP DP  RH WIND       PRES   REMARKS
KALISPELL      MOSUNNY   57  43  59 N20       30.28R
MISSOULA       MOSUNNY   50  46  86 NW3       30.30R
BUTTE          CLOUDY    41  33  73 SE3       30.35R
MULLAN PASS    SUNNY     49  37  63 E6        30.33R
DEER LODGE       N/A     52  43  71 N7        30.37R
EUREKA           N/A     48  43  81 CALM      30.33R
HAMILTON         N/A     46  37  71 CALM      30.29R
LIBBY            N/A     48  41  76 CALM      30.32R
PLAINS           N/A     47  44  89 CALM      30.27R
$$

MTZ008-052>055-241500-
SOUTHWEST MONTANA

CITY           SKY/WX    TMP DP  RH WIND       PRES   REMARKS
BOZEMAN        PTSUNNY   47  40  76 SE8       30.32S
DILLON         CLOUDY    44  36  73 E8        30.31R
W YELLOWSTONE  PTSUNNY   34  25  69 CALM      30.32S HAZE
ENNIS          SUNNY     45  36  70 CALM      30.36S
THREE FORKS      N/A     49  49 100 CALM      30.28R
$$

MTZ009-010-012-014-046-048-049-054-241500-
EAST SLOPES AND CENTRAL MONTANA

CITY           SKY/WX    TMP DP  RH WIND       PRES   REMARKS
CUT BANK       CLOUDY    50  45  83 N9        30.34R
GREAT FALLS    CLOUDY    53  43  68 W10       30.33R
MALMSTROM AFB  PTSUNNY   53  45  74 NW9       30.32R
HELENA         CLOUDY    57  43  59 NW10      30.34R
CHOTEAU          N/A     54  43  66 N20       30.35R
CONRAD           N/A     52  49  89 W7        30.32R
$$

MTZ011-013-016-021-045-047-050-051-241500-
NORTH CENTRAL MONTANA

CITY           SKY/WX    TMP DP  RH WIND       PRES   REMARKS
HAVRE          CLOUDY    54  46  74 NW13      30.25R
LEWISTOWN      CLOUDY    53  47  79 W12       30.27S
N BAR RANCH    CLOUDY    54  45  71 W16G24    30.26S
CHINOOK          N/A     55  43  62 W10G21    30.22R
$$

MTZ017>020-022>027-061-062-241500-
NORTHEAST MONTANA

CITY           SKY/WX    TMP DP  RH WIND       PRES   REMARKS
GLASGOW        CLOUDY    54  44  69 NW23G36   30.11R
JORDAN           N/A     60  44  55 NW25G36   30.15R
SIDNEY         PTSUNNY   59  47  64 NW22G28   30.04R
WOLF POINT     PTSUNNY   59  46  62 W22G31    30.07R
POPLAR           N/A     55  46  71 W18G25    30.05S
SCOBEY           N/A     52  44  74 W17       30.01R
$$

MTZ028>42-056>058-241500-
SOUTHCENTRAL AND SOUTHEAST MONTANA

CITY           SKY/WX    TMP DP  RH WIND       PRES   REMARKS
BAKER          SUNNY     56  47  71 W15       30.14S
BILLINGS       MOSUNNY   58  45  62 NE7       30.26R
LIVINGSTON     SUNNY     49  40  71 W7        30.31R
MILES CITY     PTSUNNY   59  46  62 W14       30.16S
EKALAKA          N/A     55  46  71 W15       30.13S
FORSYTH          N/A     57  48  72 W10       30.19R
LAUREL           N/A     52  41  66 SW5       30.23R
ROUNDUP          N/A     58  44  59 NW3       30.13S
$$

REGIONAL REPORTS...DAKOTAS

CITY           SKY/WX    TMP DP  RH WIND       PRES   REMARKS
WILLISTON      PTSUNNY   58  47  66 W22G28    29.99R
MINOT          MOSUNNY   62  52  69 W18       29.91R
DICKINSON      CLOUDY    56  48  74 W18       30.05R
CROSBY         CLOUDY    54  50  87 W15       29.96S
BISMARCK       SUNNY     60  50  69 W16       30.01R
GRAND FORKS    SUNNY     65  54  67 W14       29.83R
FARGO          SUNNY     64  53  67 W13       29.88R
BUFFALO SD       N/A     58  48  69 W15       30.08R
RAPID CITY     CLOUDY    60  45  57 N14       30.19R
$$

REGIONAL REPORTS...WYOMING/IDAHO/WASHINGTON

CITY           SKY/WX    TMP DP  RH WIND       PRES   REMARKS
GILLETTE       SUNNY     54  45  71 N6        30.25R
SHERIDAN       SUNNY     56  44  64 NW6       30.27R
BUFFALO WY     SUNNY     52  40  63 N8        30.29R
CODY           SUNNY     48  37  66 CALM      30.30R
YELLOWSTONE LA   N/A     39  29  67 CALM      30.35R
IDAHO FALLS    MOSUNNY   42  31  64 N9        30.20R SMOKE
SALMON         SUNNY     43  34  70 CALM      30.26S
BOISE          CLEAR     55  39  54 CALM      30.16R
SPOKANE        PTCLDY    58  46  64 NE8       30.23R
$$

REGIONAL REPORTS...ALBERTA

CITY           SKY/WX    TMP DP  RH WIND       PRES   REMARKS
EDMONTON       MOSUNNY   52  48  87 W7        30.27R
CALGARY        MOSUNNY   52  45  76 W3        30.34S
LETHBRIDGE     MOSUNNY   50  46  87 W17       30.34R
MEDICINE HAT   CLOUDY    54  48  82 NW15      30.25R
$$

REGIONAL REPORTS...SASKATCHEWAN

CITY           SKY/WX    TMP DP  RH WIND       PRES   REMARKS
SWIFT CURRENT  LGT RAIN  48  48 100 NW16G24   30.08R FOG
REGINA         PTSUNNY   54  52  94 NW22      29.90R
SASKATOON      LGT RAIN  52  52 100 N16       30.07R
$$



USA.gov is the U.S. government's official web portal to all federal, state and local government web resources and services.